Torna al catalogo

IRIDE-MS2-HEO-4

AttivoScienzaSSO
NORAD 64582·PAYLOAD·🇮🇹 Italy

Lanciato Jun 23, 2025 da Vandenberg Space Force Base

Loading…

Prossimi Passaggi (prossime 24 ore)

TLE

AggiornatoSource: Space-Track

Epoca: Sep 14, 2026, 22:03 UTC

1 64582U 25135BG  26257.91924505  .00001447  00000-0  14846-3 0  9990
2 64582  97.7801  11.0683 0002258  73.3606 286.7861 14.91951090 67279

Traccia IRIDE-MS2-HEO-4 in tempo reale con AllMySat

Download on the App Store